RAM983 LPPT-GMMN

Flight info

Callsign RAM983
Flight time N/A
Altitude 35000
Route DUZO1X DUZOP AMSEL UR722 LAKAM LAKA3A
Aircraft B738/M-SDE3FGHIRWY/L

Departure

Time N/A
Airport Lisbon Humberto Delgado Airport (LPPT)

Arrival

Time 2026-05-07 20:40
Airport Mohammed V International Airport (GMMN)
Time Latitude Longitude Altitude Speed Heading
2026-05-07 19:56 36.45860 -8.10169 34930 ft 408 kts 168°
2026-05-07 19:56 36.43165 -8.08968 34928 ft 408 kts 168°
2026-05-07 19:56 36.37837 -8.06592 34929 ft 408 kts 168°
2026-05-07 19:57 36.32482 -8.04208 34930 ft 407 kts 168°
2026-05-07 19:57 36.27146 -8.01836 34932 ft 410 kts 168°
2026-05-07 19:58 36.21765 -7.99449 34937 ft 409 kts 168°
2026-05-07 19:58 36.16414 -7.97077 34939 ft 409 kts 168°
2026-05-07 19:59 36.11017 -7.94689 34943 ft 411 kts 168°
2026-05-07 19:59 36.05646 -7.92314 34942 ft 409 kts 168°
2026-05-07 20:00 36.00299 -7.89973 34947 ft 409 kts 169°
2026-05-07 20:00 35.94845 -7.88238 34947 ft 399 kts 178°
2026-05-07 20:01 35.89354 -7.87518 34938 ft 396 kts 182°
2026-05-07 20:01 35.83830 -7.87070 34930 ft 395 kts 183°
2026-05-07 20:02 35.78338 -7.86627 34931 ft 395 kts 183°
2026-05-07 20:02 35.72975 -7.86173 34932 ft 393 kts 183°
2026-05-07 20:03 35.67495 -7.85690 34931 ft 395 kts 182°
2026-05-07 20:03 35.61996 -7.85198 34932 ft 396 kts 182°
2026-05-07 20:04 35.56464 -7.84702 34933 ft 397 kts 182°
2026-05-07 20:04 35.50941 -7.84203 34938 ft 398 kts 182°
2026-05-07 20:05 35.45365 -7.83708 34938 ft 409 kts 182°
2026-05-07 20:05 35.39583 -7.83197 34937 ft 421 kts 182°
2026-05-07 20:06 35.33705 -7.82698 34934 ft 424 kts 182°
2026-05-07 20:06 35.27784 -7.82198 34937 ft 425 kts 182°
2026-05-07 20:07 35.21899 -7.81705 34939 ft 427 kts 182°
2026-05-07 20:07 35.15999 -7.81208 34940 ft 425 kts 183°
2026-05-07 20:08 35.10060 -7.80713 34944 ft 434 kts 182°
2026-05-07 20:08 35.04009 -7.80205 34943 ft 438 kts 182°
2026-05-07 20:09 34.97980 -7.79692 34941 ft 430 kts 182°
2026-05-07 20:10 34.89086 -7.78934 34949 ft 427 kts 182°
2026-05-07 20:10 34.83319 -7.78456 34947 ft 425 kts 182°
2026-05-07 20:11 34.77488 -7.77975 34944 ft 429 kts 182°
2026-05-07 20:11 34.71625 -7.77498 34946 ft 426 kts 183°
2026-05-07 20:12 34.65708 -7.77078 34946 ft 428 kts 183°
2026-05-07 20:12 34.59758 -7.76675 34946 ft 428 kts 184°
2026-05-07 20:13 34.53817 -7.76272 34951 ft 430 kts 184°
2026-05-07 20:13 34.47870 -7.75861 34955 ft 428 kts 184°
2026-05-07 20:13 34.44872 -7.75665 34821 ft 430 kts 183°
2026-05-07 20:14 34.41850 -7.75466 34284 ft 432 kts 183°
2026-05-07 20:14 34.38889 -7.75263 33725 ft 430 kts 182°
2026-05-07 20:14 34.35912 -7.75051 33188 ft 425 kts 182°
2026-05-07 20:14 34.32998 -7.74839 32658 ft 420 kts 183°
2026-05-07 20:15 34.30087 -7.74629 32124 ft 416 kts 183°
2026-05-07 20:15 34.27290 -7.74428 31606 ft 412 kts 183°
2026-05-07 20:15 34.24448 -7.74226 31063 ft 407 kts 183°
2026-05-07 20:15 34.21650 -7.74023 30501 ft 393 kts 183°
2026-05-07 20:16 34.18952 -7.73827 29852 ft 383 kts 183°
2026-05-07 20:16 34.16361 -7.73625 29212 ft 374 kts 183°
2026-05-07 20:16 34.13784 -7.73394 28565 ft 366 kts 182°
2026-05-07 20:16 34.11298 -7.73158 27928 ft 357 kts 182°
2026-05-07 20:17 34.08827 -7.72920 27279 ft 350 kts 182°
2026-05-07 20:17 34.06437 -7.72692 26641 ft 343 kts 182°
2026-05-07 20:17 34.04063 -7.72469 25997 ft 337 kts 182°
2026-05-07 20:17 34.01741 -7.72253 25357 ft 331 kts 183°
2026-05-07 20:18 33.99466 -7.72043 24720 ft 325 kts 182°
2026-05-07 20:18 33.97240 -7.71826 24095 ft 320 kts 181°
2026-05-07 20:18 33.95055 -7.71456 23477 ft 319 kts 177°
2026-05-07 20:18 33.92875 -7.70938 22852 ft 316 kts 175°
2026-05-07 20:19 33.90733 -7.70380 22238 ft 313 kts 175°
2026-05-07 20:19 33.88631 -7.69832 21630 ft 311 kts 175°
2026-05-07 20:19 33.86495 -7.69440 20995 ft 304 kts 186°
2026-05-07 20:19 33.84444 -7.69679 20384 ft 295 kts 195°
2026-05-07 20:20 33.82453 -7.70200 19776 ft 291 kts 198°
2026-05-07 20:20 33.80494 -7.70798 19175 ft 288 kts 198°
2026-05-07 20:20 33.78571 -7.71416 18558 ft 286 kts 199°
2026-05-07 20:20 33.76668 -7.72048 17936 ft 284 kts 199°
2026-05-07 20:21 33.74783 -7.72681 17342 ft 281 kts 199°
2026-05-07 20:21 33.72901 -7.73320 16736 ft 278 kts 199°
2026-05-07 20:21 33.71042 -7.73958 16121 ft 276 kts 199°
2026-05-07 20:21 33.69211 -7.74596 15508 ft 274 kts 199°
2026-05-07 20:22 33.67399 -7.75239 14906 ft 271 kts 199°
2026-05-07 20:22 33.65587 -7.75898 14298 ft 270 kts 199°
2026-05-07 20:22 33.63821 -7.76555 13686 ft 267 kts 199°
2026-05-07 20:22 33.62057 -7.77229 13076 ft 266 kts 199°
2026-05-07 20:23 33.60276 -7.77915 12485 ft 263 kts 199°
2026-05-07 20:23 33.58548 -7.78568 11878 ft 261 kts 197°
2026-05-07 20:23 33.56765 -7.78974 11270 ft 264 kts 188°
2026-05-07 20:23 33.54923 -7.78993 10652 ft 265 kts 178°
2026-05-07 20:24 33.53112 -7.78643 10041 ft 265 kts 171°
2026-05-07 20:24 33.51331 -7.78129 9430 ft 265 kts 169°
2026-05-07 20:24 33.49545 -7.77582 8812 ft 263 kts 169°
2026-05-07 20:24 33.47800 -7.77053 8223 ft 257 kts 169°
2026-05-07 20:25 33.46062 -7.76544 7593 ft 252 kts 169°
2026-05-07 20:25 33.44388 -7.76078 7020 ft 247 kts 169°
2026-05-07 20:25 33.42736 -7.75634 6825 ft 243 kts 169°
2026-05-07 20:25 33.41055 -7.75193 6835 ft 246 kts 169°
2026-05-07 20:26 33.39362 -7.74755 6838 ft 247 kts 169°
2026-05-07 20:26 33.37668 -7.74318 6503 ft 249 kts 169°
2026-05-07 20:26 33.35986 -7.73892 6032 ft 245 kts 169°
2026-05-07 20:26 33.34323 -7.73480 5564 ft 247 kts 169°
2026-05-07 20:27 33.32628 -7.73068 5094 ft 249 kts 169°
2026-05-07 20:27 33.30940 -7.72666 4626 ft 246 kts 169°
2026-05-07 20:27 33.29260 -7.72276 4154 ft 241 kts 169°
2026-05-07 20:27 33.27663 -7.71913 3959 ft 230 kts 169°
2026-05-07 20:28 33.26057 -7.71557 3976 ft 232 kts 169°
2026-05-07 20:28 33.24468 -7.71207 3974 ft 232 kts 169°
2026-05-07 20:28 33.22855 -7.70854 3971 ft 232 kts 169°
2026-05-07 20:28 33.21254 -7.70505 3969 ft 232 kts 169°
2026-05-07 20:29 33.19684 -7.70164 3973 ft 231 kts 169°
2026-05-07 20:29 33.18080 -7.69812 3968 ft 233 kts 169°
2026-05-07 20:29 33.16475 -7.69461 3966 ft 231 kts 169°
2026-05-07 20:29 33.14890 -7.69115 3965 ft 233 kts 169°
2026-05-07 20:30 33.13283 -7.68767 3966 ft 234 kts 169°
2026-05-07 20:30 33.11682 -7.68417 3967 ft 233 kts 169°
2026-05-07 20:30 33.10086 -7.68067 3962 ft 231 kts 169°
2026-05-07 20:30 33.08481 -7.67714 3961 ft 233 kts 169°
2026-05-07 20:31 33.06902 -7.67280 3963 ft 234 kts 161°
2026-05-07 20:31 33.05387 -7.66501 3963 ft 233 kts 149°
2026-05-07 20:31 33.04078 -7.65412 3964 ft 231 kts 136°
2026-05-07 20:31 33.02979 -7.64024 3963 ft 229 kts 125°
2026-05-07 20:32 33.02143 -7.62398 3966 ft 228 kts 112°
2026-05-07 20:32 33.01620 -7.60620 3963 ft 224 kts 98°
2026-05-07 20:32 33.01755 -7.58833 3968 ft 219 kts 63°
2026-05-07 20:32 33.02786 -7.57573 3970 ft 213 kts 21°
2026-05-07 20:33 33.04240 -7.57386 3971 ft 213 kts 351°
2026-05-07 20:33 33.05705 -7.57684 3960 ft 212 kts 354°
2026-05-07 20:33 33.07205 -7.57676 3970 ft 213 kts
2026-05-07 20:33 33.08655 -7.57276 3968 ft 213 kts 18°
2026-05-07 20:34 33.09995 -7.56531 3970 ft 215 kts 27°
2026-05-07 20:34 33.11292 -7.55634 3970 ft 214 kts 29°
2026-05-07 20:34 33.12570 -7.54726 3968 ft 213 kts 29°
2026-05-07 20:34 33.13855 -7.53816 3971 ft 215 kts 29°
2026-05-07 20:35 33.15140 -7.52907 3970 ft 213 kts 29°
2026-05-07 20:35 33.16458 -7.52070 3970 ft 214 kts 26°
2026-05-07 20:35 33.17857 -7.51449 3968 ft 212 kts
2026-05-07 20:35 33.19197 -7.51771 3961 ft 192 kts 326°
2026-05-07 20:36 33.20092 -7.52915 4038 ft 188 kts 314°
2026-05-07 20:36 33.21038 -7.54007 3825 ft 191 kts 323°
2026-05-07 20:36 33.22168 -7.54856 3374 ft 190 kts 340°
2026-05-07 20:36 33.23398 -7.55182 3068 ft 181 kts 352°
2026-05-07 20:37 33.24593 -7.55431 2885 ft 169 kts 351°
2026-05-07 20:37 33.25731 -7.55627 2669 ft 161 kts 354°
2026-05-07 20:37 33.26743 -7.55810 2685 ft 131 kts 349°
2026-05-07 20:37 33.27606 -7.56086 2500 ft 131 kts 345°
2026-05-07 20:38 33.28474 -7.56390 2361 ft 132 kts 346°
2026-05-07 20:38 33.29363 -7.56703 2214 ft 132 kts 346°
2026-05-07 20:38 33.30245 -7.57014 1927 ft 135 kts 346°
2026-05-07 20:38 33.31100 -7.57304 1647 ft 123 kts 346°
2026-05-07 20:39 33.31929 -7.57549 1412 ft 122 kts 345°
2026-05-07 20:39 33.32764 -7.57845 1206 ft 127 kts 343°
2026-05-07 20:39 33.33587 -7.58136 1008 ft 126 kts 347°
2026-05-07 20:39 33.34419 -7.58420 848 ft 124 kts 346°
2026-05-07 20:40 33.35250 -7.58700 665 ft 119 kts 346°
2026-05-07 20:40 33.35900 -7.58913 662 ft 74 kts 343°
2026-05-07 20:40 33.36297 -7.59048 662 ft 45 kts 345°
2026-05-07 20:40 33.36586 -7.59057 662 ft 42 kts 15°
2026-05-07 20:41 33.36735 -7.59009 662 ft 14 kts 17°
2026-05-07 20:41 33.36760 -7.58995 662 ft 0 kts 32°
2026-05-07 20:41 33.36765 -7.58986 662 ft 4 kts 66°
2026-05-07 20:41 33.36770 -7.58967 662 ft 2 kts 71°
2026-05-07 20:42 33.36802 -7.58836 662 ft 29 kts 73°
2026-05-07 20:42 33.36871 -7.58549 662 ft 31 kts 73°
2026-05-07 20:42 33.36976 -7.58503 662 ft 16 kts 342°
2026-05-07 20:42 33.37002 -7.58512 662 ft 0 kts 342°
2026-05-07 20:43 33.37023 -7.58520 662 ft 8 kts 343°
2026-05-07 20:43 33.37132 -7.58555 662 ft 23 kts 343°
2026-05-07 20:43 33.37331 -7.58624 662 ft 36 kts 345°
2026-05-07 20:44 33.37568 -7.58706 662 ft 34 kts 342°
2026-05-07 20:44 33.37790 -7.58781 662 ft 32 kts 345°
2026-05-07 20:44 33.37907 -7.58730 662 ft 16 kts 71°
2026-05-07 20:44 33.37883 -7.58615 662 ft 14 kts 127°
2026-05-07 20:45 33.37826 -7.58524 662 ft 13 kts 127°
2026-05-07 20:45 33.37749 -7.58470 662 ft 12 kts 163°
2026-05-07 20:45 33.37656 -7.58443 662 ft 16 kts 175°
2026-05-07 20:45 33.37566 -7.58428 662 ft 4 kts 159°
2026-05-07 20:46 33.37555 -7.58423 662 ft 0 kts 158°
2026-05-07 20:46 33.37537 -7.58415 662 ft 6 kts 160°
2026-05-07 20:46 33.37482 -7.58379 662 ft 11 kts 111°
2026-05-07 20:47 33.37489 -7.58329 662 ft 3 kts 75°
2026-05-07 20:47 33.37491 -7.58316 662 ft 0 kts 75°